Location: Griskovshchina
(53.8670°N, 0.0000°E)
Time: 05:56:50
(UTC+03:00)

ISS - Visible Passes

Search period start: 19 August 2022 00:00
Search period end: 29 August 2022 00:00
Orbit: 412 x 420 km, 51.6° (Epoch: 18 August)

Date Brightness Start Highest point End Pass type
(mag) Time Alt. Az. Time Alt. Az. Time Alt. Az.
25 Aug -1.2 07:17:44 10° S 07:19:36 14° SE 07:21:28 10° ESE visible
27 Aug -2.1 07:15:50 10° SSW 07:18:38 25° SSE 07:21:27 10° E visible
28 Aug -1.7 06:28:24 13° S 06:30:08 19° SSE 06:32:33 10° E visible
